Date String (YYYY-MM-DD hh:mm:ss) UTC,Instrument flags,absolute air pressure of the measurement (hPa),sample flow rate (lpm),inlet stack bypass flow (lpm),air temperature of the measurement (°C),ambient temperature measured by the external sensor (°C),aerosol sample conditioner tube jacket temperature (°C),OPC LED temperature (°C),internal box temperature (°C),relative humidity of the measurement (%),span deviation,mass concentration of particles derived from Lorenz-Mie calculation of OPC scattering (μg/m³),mass concentration of particles derived from Lorenz-Mie calculation of OPC scattering (μg/m³),mass concentration of particles derived from Lorenz-Mie calculation of OPC scattering (μg/m³)
DateTimeUTC,F1_M11,P_M11,Q1_M11,Q2_M11,T1_M11,T2_M11,T3_M11,T4_M11,T5_M11,U1_M11,ZSPAN_M11,X0_M11,X2_M11,X1_M11
2023-12-23 16:00:00,SystemResetWarning,0820.6,4.99,000.00,023.3,022.5,000.0,031.6,024.8,14.1,0000.0,0012.84,0004.94,0004.41
2023-12-23 16:01:00,SystemResetWarning,0820.6,5.01,000.00,023.3,022.5,000.0,031.6,024.8,14.0,0000.0,0012.93,0004.98,0004.47
2023-12-23 16:02:00,SystemResetWarning,0820.6,5.01,000.00,023.3,022.5,000.0,031.6,024.8,14.0,0000.0,0012.18,0005.03,0004.52
2023-12-23 16:03:00,SystemResetWarning,0820.6,5.01,000.00,023.3,022.5,000.0,031.6,024.7,14.0,0000.0,0012.50,0005.13,0004.61
2023-12-23 16:04:00,SystemResetWarning,0820.6,5.01,000.00,023.3,022.5,000.0,031.6,024.7,14.0,0000.0,0011.72,0005.22,0004.67
2023-12-23 16:05:00,SystemResetWarning,0820.6,5.01,000.00,023.3,022.5,000.0,031.7,024.7,14.0,0000.1,0011.37,0005.29,0004.72
2023-12-23 16:06:00,SystemResetWarning,0820.6,5.00,000.00,023.3,022.5,000.0,031.7,024.7,14.1,0000.0,0011.40,0005.35,0004.75
2023-12-23 16:07:00,SystemResetWarning,0820.5,5.00,000.00,023.3,022.5,000.0,031.7,024.7,14.2,0000.0,0011.10,0005.36,0004.79
2023-12-23 16:08:00,SystemResetWarning,0820.5,4.99,000.00,023.3,022.5,000.0,031.7,024.7,14.2,0000.0,0011.79,0005.36,0004.80
2023-12-23 16:09:00,SystemResetWarning,0820.9,4.99,000.00,023.3,022.4,000.0,031.7,024.8,14.5,0000.0,0011.85,0005.38,0004.84
2023-12-23 16:10:00,SystemResetWarning,0820.8,4.99,000.00,023.3,022.4,000.0,031.6,024.7,14.6,0000.0,0011.77,0005.41,0004.87
2023-12-23 16:11:00,SystemResetWarning,0820.4,5.00,000.00,023.3,022.4,000.0,031.6,024.7,14.7,0000.0,0011.71,0005.45,0004.92
2023-12-23 16:12:00,SystemResetWarning,0820.3,5.01,000.00,023.3,022.4,000.0,031.6,024.7,14.7,0000.0,0012.28,0005.53,0004.98
2023-12-23 16:13:00,SystemResetWarning,0820.3,5.00,000.00,023.3,022.4,000.0,031.6,024.7,14.5,0000.0,0012.84,0005.59,0005.04
2023-12-23 16:14:00,SystemResetWarning,0820.3,5.00,000.00,023.3,022.4,000.0,031.7,024.8,14.4,0000.0,0012.55,0005.65,0005.07
2023-12-23 16:15:00,SystemResetWarning,0820.2,5.01,000.00,023.3,022.4,000.0,031.7,024.7,14.4,0000.0,0012.58,0005.73,0005.14
2023-12-23 16:16:00,SystemResetWarning,0820.2,4.99,000.00,023.3,022.4,000.0,031.7,024.8,14.3,0000.0,0012.67,0005.79,0005.22
2023-12-23 16:17:00,SystemResetWarning,0820.1,4.99,000.00,023.3,022.4,000.0,031.7,024.8,14.4,0000.0,0012.84,0005.87,0005.31
2023-12-23 16:18:00,SystemResetWarning,0820.1,5.00,000.00,023.3,022.4,000.0,031.7,024.8,14.2,0000.0,0013.07,0005.97,0005.39
2023-12-23 16:19:00,SystemResetWarning,0820.1,5.01,000.00,023.3,022.3,000.0,031.7,024.8,13.8,0000.0,0012.96,0006.08,0005.49
2023-12-23 16:20:00,SystemResetWarning,0820.0,4.99,000.00,023.3,022.3,000.0,031.7,024.8,14.0,0000.2,0013.04,0006.20,0005.58
2023-12-23 16:21:00,SystemResetWarning,0820.0,4.99,000.00,023.3,022.3,000.0,031.7,024.8,14.3,0005.1,0013.90,0006.28,0005.66
2023-12-23 16:22:00,SystemResetWarning,0820.0,4.99,000.00,023.3,022.3,000.0,031.7,024.8,14.6,0004.9,0013.91,0006.32,0005.72
2023-12-23 16:23:00,SystemResetWarning,0820.0,5.00,000.00,023.3,022.3,000.0,031.7,024.8,14.5,0003.7,0013.17,0006.38,0005.78
2023-12-23 16:24:00,SystemResetWarning,0820.0,5.01,000.00,023.3,022.3,000.0,031.7,024.8,14.4,0003.7,0012.06,0006.45,0005.82
2023-12-23 16:25:00,SystemResetWarning,0820.0,5.01,000.00,023.3,022.3,000.0,031.7,024.8,14.5,0004.1,0012.14,0006.47,0005.84
2023-12-23 16:26:00,SystemResetWarning,0819.9,5.00,000.00,023.3,022.3,000.0,031.7,024.8,14.2,0003.6,0011.79,0006.41,0005.85
2023-12-23 16:27:00,SystemResetWarning,0820.0,5.00,000.00,023.3,022.3,000.0,031.7,024.7,13.7,0001.6,0011.83,0006.42,0005.83
2023-12-23 16:28:00,SystemResetWarning,0820.1,5.00,000.00,023.3,022.3,000.0,031.7,024.8,13.8,0000.0,0012.12,0006.42,0005.81
2023-12-23 16:29:00,SystemResetWarning,0820.1,5.00,000.00,023.3,022.3,000.0,031.7,024.8,13.8,0000.0,0012.35,0006.36,0005.77
2023-12-23 16:30:00,SystemResetWarning,0820.1,4.99,000.00,023.4,022.3,000.0,031.7,024.8,13.9,0000.0,0011.78,0006.32,0005.72
2023-12-23 16:31:00,SystemResetWarning,0820.2,5.00,000.00,023.4,022.4,000.0,031.7,024.8,13.8,0000.0,0012.35,0006.25,0005.67
2023-12-23 16:32:00,SystemResetWarning,0820.2,4.99,000.00,023.4,022.4,000.0,031.7,024.8,13.9,0001.2,0012.02,0006.20,0005.60
2023-12-23 16:33:00,SystemResetWarning,0820.2,5.00,000.00,023.4,022.4,000.0,031.7,024.8,13.6,0000.0,0011.92,0006.13,0005.52
2023-12-23 16:34:00,SystemResetWarning,0820.1,5.00,000.00,023.4,022.4,000.0,031.7,024.8,13.8,0000.0,0011.77,0006.03,0005.43
2023-12-23 16:35:00,SystemResetWarning,0820.4,5.00,000.00,023.4,022.4,000.0,031.7,024.9,13.8,0000.0,0011.51,0005.89,0005.34
2023-12-23 16:36:00,SystemResetWarning,0820.2,5.01,000.00,023.4,022.4,000.0,031.7,024.9,13.9,0000.0,0011.31,0005.77,0005.26
2023-12-23 16:37:00,SystemResetWarning,0820.1,4.99,000.00,023.4,022.4,000.0,031.7,024.9,13.9,0000.0,0011.48,0005.72,0005.19
2023-12-23 16:38:00,SystemResetWarning,0820.0,5.00,000.00,023.4,022.4,000.0,031.7,024.8,13.9,0000.0,0011.39,0005.64,0005.11
2023-12-23 16:39:00,SystemResetWarning,0820.1,5.00,000.00,023.4,022.4,000.0,031.7,024.9,13.8,0000.0,0011.20,0005.53,0005.03
2023-12-23 16:40:00,SystemResetWarning,0820.0,5.00,000.00,023.4,022.5,000.0,031.7,024.9,13.8,0000.0,0010.20,0005.43,0004.95
2023-12-23 16:41:00,SystemResetWarning,0820.0,5.00,000.00,023.4,022.5,000.0,031.7,024.9,13.9,0000.0,0010.06,0005.31,0004.85
2023-12-23 16:42:00,SystemResetWarning,0820.1,4.99,000.00,023.4,022.5,000.0,031.7,024.9,13.4,0000.0,0010.29,0005.22,0004.77
2023-12-23 16:43:00,SystemResetWarning,0820.0,5.00,000.00,023.4,022.6,000.0,031.7,024.9,13.3,0000.0,0009.68,0005.10,0004.68
2023-12-23 16:44:00,SystemResetWarning,0820.0,5.00,000.00,023.4,022.6,000.0,031.7,024.9,13.5,0000.0,0009.30,0005.02,0004.60
2023-12-23 16:45:00,SystemResetWarning,0820.0,5.00,000.00,023.4,022.6,000.0,031.7,024.9,13.7,0000.0,0009.27,0004.95,0004.52
2023-12-23 16:46:00,SystemResetWarning,0820.0,5.00,000.00,023.5,022.6,000.0,031.7,024.9,13.7,0000.0,0009.68,0004.89,0004.43
2023-12-23 16:47:00,SystemResetWarning,0820.0,5.00,000.00,023.4,022.6,000.0,031.7,024.9,13.5,0000.0,0009.69,0004.79,0004.36
2023-12-23 16:48:00,SystemResetWarning,0820.0,5.00,000.00,023.5,022.7,000.0,031.8,024.9,13.6,0000.0,0009.59,0004.73,0004.29
2023-12-23 16:49:00,SystemResetWarning,0820.0,5.00,000.00,023.5,022.7,000.0,031.8,024.9,13.6,0000.0,0009.65,0004.63,0004.21
2023-12-23 16:50:00,SystemResetWarning,0820.0,5.01,000.00,023.5,022.7,000.0,031.8,024.9,13.7,0000.0,0009.59,0004.55,0004.14
2023-12-23 16:51:00,SystemResetWarning,0820.2,5.00,000.00,023.5,022.7,000.0,031.8,024.9,14.2,0000.0,0010.19,0004.50,0004.10
2023-12-23 16:52:00,SystemResetWarning,0820.3,5.00,000.00,023.5,022.7,000.0,031.8,024.9,14.1,0000.0,0010.39,0004.49,0004.07
2023-12-23 16:53:00,SystemResetWarning,0820.3,4.99,000.00,023.5,022.7,000.0,031.8,024.9,14.3,0000.0,0010.54,0004.50,0004.06
2023-12-23 16:54:00,SystemResetWarning,0820.1,5.00,000.00,023.5,022.7,000.0,031.8,025.0,14.0,0000.0,0010.51,0004.52,0004.06
2023-12-23 16:55:00,SystemResetWarning,0820.0,5.00,000.00,023.5,022.7,000.0,031.8,024.9,14.1,0000.0,0010.77,0004.53,0004.06
2023-12-23 16:56:00,SystemResetWarning,0819.9,4.99,000.00,023.5,022.7,000.0,031.8,024.9,13.8,0000.0,0010.80,0004.52,0004.06
2023-12-23 16:57:00,SystemResetWarning,0820.0,5.00,000.00,023.5,022.7,000.0,031.8,024.9,13.4,0000.0,0010.51,0004.51,0004.07
2023-12-23 16:58:00,SystemResetWarning,0820.0,5.00,000.00,023.5,022.7,000.0,031.8,024.9,13.8,0000.0,0010.32,0004.55,0004.10
2023-12-23 16:59:00,SystemResetWarning,0820.2,5.00,000.00,023.5,022.7,000.0,031.8,025.0,14.1,0000.0,0010.92,0004.55,0004.11
